Tracking 25734 objects as of 28-May-2022
HD Live streaming from Space Station
objects crossing your sky now

NAVSTAR 77 (USA 289)

Track NAVSTAR 77 (USA 289) now!
NAVSTAR 77 (USA 289) is classified as:


NORAD ID: 43873
Int'l Code: 2018-109A
Perigee: 20,138.7 km
Apogee: 20,238.8 km
Inclination: 55.1 °
Period: 718.0 minutes
Semi major axis: 26559 km
RCS: Unknown
Launch date: December 23, 2018
Source: United States (US)
Launch site: AIR FORCE EASTERN TEST RANGE (AFETR)
PRN: 4
aabbcc
Your satellite tracking list
Your tracking list is empty




NASA's NSSDC Master Catalog

Two Line Element Set (TLE):
1 43873U 18109A   22147.93315920  .00000076  00000-0  00000-0 0  9995
2 43873  55.0863 150.7039 0018847 197.1100 309.0798  2.00570638 25369
Source of the keplerian elements: AFSPC